Location: Bazugues
(43.4465°N, 0.3432°E)
Time: 15:07:30
(UTC+00:00)

Cosmos 2297 - Visible Passes

Search period start: 11 April 2026 00:00
Search period end: 21 April 2026 00:00
Orbit: 834 x 858 km, 71.0° (Epoch: 11 April)

Date Brightness Start Highest point End Pass type
(mag) Time Alt. Az. Time Alt. Az. Time Alt. Az.
11 Apr 6.1 00:32:05 10° NW 00:32:52 13° NW 00:32:52 13° NW visible
11 Apr 5.0 22:33:40 10° NNW 22:37:29 35° NNE 22:37:29 35° NNE visible
12 Apr 6.1 00:18:16 10° NW 00:19:23 15° NW 00:19:23 15° NW visible
12 Apr 4.8 22:19:54 10° NNW 22:24:01 37° NNE 22:24:01 37° NNE visible
13 Apr 5.9 00:04:26 10° NW 00:05:55 17° NW 00:05:55 17° NW visible
13 Apr 4.7 22:06:07 10° NNW 22:10:34 39° NNE 22:10:34 39° NNE visible
13 Apr 5.8 23:50:37 10° NW 23:52:28 19° WNW 23:52:28 19° WNW visible
14 Apr 4.6 21:52:22 10° NNW 21:57:09 40° NE 21:57:09 40° NE visible
14 Apr 5.7 23:36:48 10° NW 23:39:03 21° WNW 23:39:03 21° WNW visible
15 Apr 4.5 21:38:35 10° NNW 21:43:45 40° NE 21:43:45 40° NE visible
15 Apr 5.5 23:22:59 10° NW 23:25:39 23° WNW 23:25:39 23° WNW visible
16 Apr 4.4 21:24:49 10° NNW 21:30:13 40° ENE 21:30:23 40° ENE visible
16 Apr 5.4 23:09:10 10° NW 23:12:17 26° WNW 23:12:17 26° WNW visible
17 Apr 4.4 21:11:03 10° NNW 21:16:25 39° ENE 21:17:02 38° ENE visible
17 Apr 5.2 22:55:22 10° NW 22:58:56 29° WNW 22:58:56 29° WNW visible
18 Apr 4.4 20:57:17 10° N 21:02:37 38° ENE 21:03:42 35° E visible
18 Apr 5.0 22:41:32 10° NW 22:45:37 32° W 22:45:37 32° W visible
19 Apr 4.5 20:43:30 10° N 20:48:49 37° NE 20:50:25 31° E visible
19 Apr 4.8 22:27:44 10° NW 22:32:20 35° W 22:32:20 35° W visible
20 Apr 4.6 20:29:44 10° N 20:35:01 36° NE 20:37:09 27° E visible
20 Apr 4.7 22:13:56 10° NW 22:19:04 37° WSW 22:19:04 37° WSW visible
